Regional Weather Roundup
Issued by NWS State College, PA

Home | Current Version | Previous Version | Graphics & Text | Print | Product List | Glossary Off
Versions: 1 2 3 4 5 6 7 8 9 10 11 12 13 14 15 16 17 18 19 20 21 22 23 24 25 26 27 28 29 30 31 32 33 34 35 36 37 38 39 40 41 42 43 44 45 46 47 48 49 50

000
ASUS41 KCTP 240403
RWRCTP

REGIONAL WEATHER ROUNDUP
NATIONAL WEATHER SERVICE STATE COLLEGE PA
1200 AM EDT MON APR 24 2017

Note: "fair" indicates few or no clouds below 12,000 feet with no
significant weather and/or obstructions to visibility.

* = STATION THAT DOES NOT REPORT PRECIPITATION /E.G. RAIN...SNOW...ETC/
    THUNDER OR FOG.

PAZ002>004-007>009-013>016-020>023-029>032-240500-
WESTERN PENNSYLVANIA

CITY           SKY/WX    TMP DP  RH WIND       PRES   REMARKS
ERIE           CLEAR     42  31  64 CALM      30.08R
MEADVILLE      CLOUDY    50  29  44 NE7       30.07S
FRANKLIN*      CLOUDY    52  28  40 NE5       30.08S
NEW CASTLE     FAIR      52  37  56 E5        30.06S
BEAVER COUNTY  NOT AVBL
BUTLER*        PTCLDY    55  30  38 E3        30.06R
PITTSBURGH INT MOCLDY    56  30  37 E7        30.04S
PITTSBURGH     PTCLDY    55  27  34 SE8       30.03F
INDIANA*       CLEAR     54  34  47 CALM      30.08F
LATROBE        PTCLDY    50  32  50 NE6       30.06S
WASHINGTON CO* CLOUDY    45  32  61 CALM      30.05F
$$

PAZ004>006-010>012-017>019-024>028-033>037-041-042-045-046-049>053-240500-
CENTRAL PENNSYLVANIA

CITY           SKY/WX    TMP DP  RH WIND       PRES   REMARKS
BRADFORD       CLOUDY    47  34  60 CALM      30.09R
DUBOIS         CLOUDY    53  27  36 CALM      30.07R
CLEARFIELD     CLOUDY    53  30  41 CALM      30.08S
JOHNSTOWN      CLEAR     48  34  58 E5        30.07S
ALTOONA        CLEAR     50  38  63 CALM      30.09S
STATE COLLEGE  CLOUDY    52  32  47 SW5       30.08S
WILLIAMSPORT   CLEAR     49  39  68 CALM      30.08R
SELINSGROVE    PTCLDY    45  41  86 CALM      30.10R
FT INDIANTOWN  PTCLDY    48  46  91 CALM      30.10S
CAPITAL CITY   PTCLDY    53  43  68 CALM      30.10S
HARRISBURG     MOCLDY    55  44  66 SE3       30.10R
YORK           PTCLDY    47  45  93 CALM      30.10S
$$

PAZ038>040-043-044-047-048-054-055-060>062-067>071-240500-
EASTERN PENNSYLVANIA

CITY           SKY/WX    TMP DP  RH WIND       PRES   REMARKS
SCRANTON       PTCLDY    53  35  50 CALM      30.08S
MOUNT POCONO   CLOUDY    41  36  82 CALM      30.10S
ALLENTOWN      PTCLDY    55  40  56 S6        30.11R
QUAKERTOWN*    CLOUDY    50  46  87 S3        30.12S
READING        MOCLDY    54  44  69 S5        30.10S
LANCASTER      PTCLDY    50  45  83 E3        30.11S
COATESVILLE    PTCLDY    50  46  87 CALM      30.13S
POTTSTOWN      PTCLDY    49  45  86 CALM      30.14R
BLUE BELL      CLOUDY    48  45  87 CALM      30.14S
DOYLESTOWN     CLEAR     48  45  89 S3        30.12R
WILLOW GROVE   NOT AVBL
NORTH PHILA    MOCLDY    52  44  74 VRB3      30.15R
PHILADELPHIA   CLOUDY    51  44  77 SE5       30.14S
$$




USA.gov is the U.S. government's official web portal to all federal, state and local government web resources and services.